[TLELIST] Archives

 

[list_settings.list_name] Current TLEs

July 22nd 2013 PDT

HST 1 20580U 90037B 13202.84935883 .00001269 00000-0 78012-4 0 2869 2 20580 028.4710 045.5744 0003389 003.1889 120.2226 15.03782010 74924 ISS (ZARYA) 1 25544U 98067A 13203.45243038 .00011839 00000-0 21506-3 0 2383 2 25544 051.6500 293.5863 0004499 209.9510 252.3549 15.50000585840176 CXO 1 25867U 99040B 13204.94937503 -.00000390 00000-0 00000+0 0 9273 2 25867 075.6560 337.3675 8524656 277.1934 000.3590 00.37800639 10679 ____________________________________________________________________ These 2-Line ...Continue Reading

[list_settings.list_name] Current TLEs

July 20th 2013 PDT

HST 1 20580U 90037B 13201.05881310 .00001241 00000-0 76009-4 0 2859 2 20580 028.4709 057.3145 0003362 345.0196 145.9649 15.03778690 74650 ISS (ZARYA) 1 25544U 98067A 13201.51951817 .00010382 00000-0 18996-3 0 2234 2 25544 051.6482 303.1600 0004964 202.2560 267.4341 15.49948210839876 CXO 1 25867U 99040B 13202.30518567 -.00000350 00000-0 00000+0 0 9261 2 25867 075.6388 337.5299 8528806 277.1868 000.5507 00.37797349 10660 ____________________________________________________________________ These 2-Line ...Continue Reading

[list_settings.list_name] Current TLEs

July 19th 2013 PDT

HST 1 20580U 90037B 13199.79012444 .00001182 00000-0 71807-4 0 2844 2 20580 028.4709 065.6327 0003268 331.8078 117.4757 15.03774398 74454 ISS (ZARYA) 1 25544U 98067A 13200.48597792 .00009571 00000-0 17591-3 0 2167 2 25544 051.6491 308.2794 0004924 198.3148 260.6388 15.49922512839715 CXO 1 25867U 99040B 13202.30518567 -.00000350 00000-0 00000+0 0 9261 2 25867 075.6388 337.5299 8528806 277.1868 000.5507 00.37797349 10660 ____________________________________________________________________ These 2-Line ...Continue Reading

[list_settings.list_name] Current TLEs

July 18th 2013 PDT

HST 1 20580U 90037B 13198.07505549 .00001136 00000-0 68543-4 0 2838 2 20580 028.4708 076.8775 0003185 313.0428 193.2808 15.03769212 74204 ISS (ZARYA) 1 25544U 98067A 13199.45198818 .00009599 00000-0 17653-3 0 2098 2 25544 051.6494 313.3991 0005012 194.4354 251.3734 15.49901657839550 CXO 1 25867U 99040B 13197.01567539 -.00000515 00000-0 00000+0 0 9246 2 25867 075.6086 337.8481 8531982 277.1778 000.7724 00.37801373 10644 ____________________________________________________________________ These 2-Line ...Continue Reading

[list_settings.list_name] Current TLEs

July 17th 2013 PDT

HST 1 20580U 90037B 13198.07505549 .00001136 00000-0 68543-4 0 2838 2 20580 028.4708 076.8775 0003185 313.0428 193.2808 15.03769212 74204 ISS (ZARYA) 1 25544U 98067A 13198.48580727 .00009881 00000-0 18160-3 0 2036 2 25544 051.6498 318.1842 0005031 190.3093 261.0299 15.49883372839409 CXO 1 25867U 99040B 13197.01567539 -.00000515 00000-0 00000+0 0 9246 2 25867 075.6086 337.8481 8531982 277.1778 000.7724 00.37801373 10644 ____________________________________________________________________ These 2-Line ...Continue Reading

[list_settings.list_name] Current TLEs

July 15th 2013 PDT

HST 1 20580U 90037B 13195.15006253 .00001147 00000-0 69328-4 0 2814 2 20580 028.4706 096.0552 0003081 281.2685 199.2249 15.03761011 73769 ISS (ZARYA) 1 25544U 98067A 13196.34922944 .00008378 00000-0 15548-3 0 1902 2 25544 051.6512 328.7643 0005191 183.2733 219.1519 15.49834495839075 CXO 1 25867U 99040B 13197.01567539 -.00000515 00000-0 00000+0 0 9246 2 25867 075.6086 337.8481 8531982 277.1778 000.7724 00.37801373 10644 ____________________________________________________________________ These 2-Line ...Continue Reading

[list_settings.list_name] Current TLEs

July 14th 2013 PDT

HST 1 20580U 90037B 13195.15006253 .00001147 00000-0 69328-4 0 2814 2 20580 028.4706 096.0552 0003081 281.2685 199.2249 15.03761011 73769 ISS (ZARYA) 1 25544U 98067A 13195.51125715 .00007837 00000-0 14606-3 0 1836 2 25544 051.6503 332.9134 0005189 180.3491 223.6180 15.49817109838945 CXO 1 25867U 99040B 13197.01567539 -.00000515 00000-0 00000+0 0 9246 2 25867 075.6086 337.8481 8531982 277.1778 000.7724 00.37801373 10644 ____________________________________________________________________ These 2-Line ...Continue Reading

[list_settings.list_name] Current TLEs

July 13th 2013 PDT

HST 1 20580U 90037B 13194.08360722 .00000972 00000-0 56910-4 0 2806 2 20580 028.4705 103.0475 0003050 269.9055 185.9188 15.03757526 73592 ISS (ZARYA) 1 25544U 98067A 13194.41638753 .00007693 00000-0 14361-3 0 1765 2 25544 051.6498 338.3366 0005370 175.4617 235.8586 15.49798660838778 CXO 1 25867U 99040B 13194.37203341 -.00000450 00000-0 00000+0 0 9237 2 25867 075.5916 338.0194 8531619 277.1911 000.9497 00.37799523 10636 ____________________________________________________________________ These 2-Line ...Continue Reading

[list_settings.list_name] Current TLEs

July 11th 2013 PDT

HST 1 20580U 90037B 13191.17056978 .00001223 00000-0 74809-4 0 2782 2 20580 028.4702 122.1466 0002968 236.4468 258.5437 15.03746804 73169 ISS (ZARYA) 1 25544U 98067A 13192.48384065 .00002514 00000-0 52449-4 0 1637 2 25544 051.6493 347.9068 0005392 171.9508 250.1499 15.49762249838476 CXO 1 25867U 99040B 13194.37203341 -.00000450 00000-0 00000+0 0 9237 2 25867 075.5916 338.0194 8531619 277.1911 000.9497 00.37799523 10636 ____________________________________________________________________ These 2-Line ...Continue Reading

[list_settings.list_name] Current TLEs

July 9th 2013 PDT

HST 1 20580U 90037B 13189.31190008 .00001082 00000-0 64737-4 0 2779 2 20580 028.4700 134.3326 0002971 215.1066 278.1769 15.03742489 72888 ISS (ZARYA) 1 25544U 98067A 13190.48142315 .00007875 00000-0 14263-3 0 1495 2 25544 051.6509 357.8260 0008514 142.9288 257.7448 15.50616397838167 CXO 1 25867U 99040B 13191.72558082 -.00000461 00000-0 00000+0 0 9229 2 25867 075.5754 338.1549 8532037 277.2322 000.6593 00.37794951 10626 ____________________________________________________________________ These 2-Line ...Continue Reading
  • This mailing list is a public mailing list - anyone may join or leave, at any time.
  • This mailing list is announce-only.

International Space Station (ISS) / Hubble Space Telescope (HST) / Chandra X-Ray Observatory Orbital Data via EMAIL

Privacy Policy:

Private list